Holland, MI

7:03 PM EDT on August 21, 2017 (GMT -0400)
Tulip City

Weather History for KBIV - July, 2013

Change the Weather History Date:

Sunday, July 28, 2013

  Actual Average Record
Temperature  
Mean Temperature 62 °F 72 °F  
Max Temperature 67 °F 82 °F 91 °F (1983)
Min Temperature 57 °F 63 °F 47 °F (1965)
Degree Days  
Heating Degree Days 3 0  
Month to date heating degree days 4 0  
Since 1 June heating degree days 38 48  
Since 1 July heating degree days 4 0  
Cooling Degree Days 0 8  
Month to date cooling degree days 266 218  
Year to date cooling degree days 520 406  
Since 1 June cooling degree days 430 364  
Growing Degree Days 12 (Base 50)    
Moisture  
Dew Point 53 °F    
Average Humidity 75    
Maximum Humidity 86    
Minimum Humidity 63    
Precipitation  
Precipitation 0.80 in 0.09 in 2.88 in (1955)
Month to date precipitation 2.78 2.54  
Year to date precipitation 25.94 19.35  
Sea Level Pressure  
Sea Level Pressure 29.88 in    
Wind  
Wind Speed 6 mph (West)    
Max Wind Speed 16 mph    
Max Gust Speed 21 mph    
Visibility 8 miles    
Events Rain    
T = Trace of Precipitation, MM = Missing Value Source: NWS Daily Summary

Daily Weather History Graph

Daily Weather History Graph

Search for Another Location

Airport or City:

Trip Planner

Search our weather history database for the weather conditions in past years. The results will help you decide how hot, cold, wet, or windy it might be!

Date:

Astronomy

Jul. 28, 2013 Rise Set
Actual Time 6:32 AM EDT 9:09 PM EDT
Civil Twilight 5:59 AM EDT 9:41 PM EDT
Nautical Twilight 5:18 AM EDT 10:21 PM EDT
Astronomical Twilight 4:32 AM EDT 11:07 PM EDT
Moon No Moon Rise 1:24 PM EDT (7/28)
Length of Visible Light 15h 41m
Length of Day
14h 36m
Waning Gibbous, 61% of the Moon is Illuminated
Jul 28
Waning Gibbous
Jul 29
Last Quarter
Aug 6
New
Aug 14
First Quarter
Aug 20
Full

Hourly Weather History & Observations

Time (EDT) Temp. Dew Point Humidity Pressure Visibility Wind Dir Wind Speed Gust Speed Precip Events Conditions
12:53 AM 57.9 °F 52.0 °F 81% 29.85 in 10.0 mi SSE 3.5 mph - N/A   Overcast
1:53 AM 59.0 °F 52.0 °F 78% 29.84 in 10.0 mi Calm Calm - 0.01 in Rain Light Rain
2:53 AM 57.9 °F 54.0 °F 87% 29.83 in 10.0 mi Calm Calm - 0.00 in   Overcast
3:48 AM 57.2 °F 53.6 °F 88% 29.83 in 1.8 mi WSW 11.5 mph - 0.17 in Rain Heavy Rain
3:50 AM 57.2 °F 53.6 °F 88% 29.83 in 2.0 mi West 6.9 mph - 0.18 in Rain Heavy Rain
3:53 AM 57.0 °F 53.1 °F 87% 29.83 in 2.5 mi WSW 8.1 mph - 0.19 in Rain Rain
4:00 AM 57.2 °F 53.6 °F 88% 29.84 in 8.0 mi West 8.1 mph - 0.00 in Rain Light Rain
4:17 AM 57.2 °F 53.6 °F 88% 29.83 in 5.0 mi WSW 8.1 mph - 0.05 in Rain Light Rain
4:53 AM 57.9 °F 53.1 °F 84% 29.81 in 10.0 mi WSW 4.6 mph - 0.06 in   Overcast
5:53 AM 57.9 °F 52.0 °F 81% 29.82 in 10.0 mi West 8.1 mph - 0.11 in Rain Light Rain
6:45 AM 57.2 °F 51.8 °F 82% 29.83 in 7.0 mi West 10.4 mph 18.4 mph 0.04 in Rain Rain
6:53 AM 57.0 °F 52.0 °F 83% 29.83 in 9.0 mi West 10.4 mph - 0.04 in Rain Light Rain
7:53 AM 57.0 °F 53.1 °F 87% 29.85 in 10.0 mi WSW 3.5 mph - 0.03 in   Overcast
8:29 AM 57.2 °F 51.8 °F 82% 29.85 in 6.0 mi West 6.9 mph - 0.04 in Rain Light Rain
8:53 AM 57.0 °F 52.0 °F 83% 29.86 in 6.0 mi WNW 6.9 mph - 0.05 in Rain Light Rain
9:53 AM 57.9 °F 53.1 °F 84% 29.86 in 10.0 mi West 6.9 mph - 0.03 in Rain Light Rain
10:27 AM 57.2 °F 53.6 °F 88% 29.87 in 1.8 mi West 8.1 mph - 0.09 in Rain Heavy Rain
10:35 AM 57.2 °F 53.6 °F 88% 29.87 in 3.0 mi West 6.9 mph - 0.10 in Rain Rain
10:53 AM 60.1 °F 55.0 °F 83% 29.87 in 10.0 mi West 5.8 mph - 0.11 in Rain Light Rain
11:42 AM 57.2 °F 53.6 °F 88% 29.88 in 4.0 mi WNW 3.5 mph - 0.08 in Rain Light Rain
11:53 AM 59.0 °F 55.0 °F 87% 29.88 in 10.0 mi Calm Calm - 0.08 in   Overcast
12:17 PM 60.8 °F 55.4 °F 82% 29.89 in 10.0 mi NW 3.5 mph - N/A   Overcast
12:29 PM 60.8 °F 55.4 °F 82% 29.89 in 8.0 mi West 6.9 mph - 0.01 in Rain Light Rain
12:53 PM 60.1 °F 54.0 °F 80% 29.90 in 10.0 mi WNW 10.4 mph 18.4 mph 0.01 in   Overcast
1:00 PM 60.8 °F 53.6 °F 77% 29.90 in 10.0 mi NW 9.2 mph 18.4 mph N/A   Overcast
1:37 PM 60.8 °F 55.4 °F 82% 29.91 in 10.0 mi North 3.5 mph - 0.05 in   Overcast
1:53 PM 59.0 °F 54.0 °F 83% 29.91 in 5.0 mi WNW 4.6 mph - 0.07 in Rain Light Rain
2:07 PM 60.8 °F 55.4 °F 82% 29.91 in 10.0 mi Calm Calm - 0.00 in   Overcast
2:53 PM 62.1 °F 53.1 °F 72% 29.92 in 10.0 mi West 6.9 mph - 0.00 in   Overcast
3:53 PM 64.0 °F 52.0 °F 65% 29.93 in 10.0 mi West 10.4 mph 18.4 mph N/A   Mostly Cloudy
4:53 PM 66.9 °F 53.1 °F 61% 29.94 in 10.0 mi WSW 15.0 mph 20.7 mph N/A   Mostly Cloudy
5:53 PM 64.0 °F 51.1 °F 63% 29.95 in 10.0 mi West 8.1 mph - N/A   Clear
6:53 PM 64.0 °F 52.0 °F 65% 29.96 in 10.0 mi WSW 11.5 mph - N/A   Mostly Cloudy
7:53 PM 63.0 °F 51.1 °F 65% 29.97 in 10.0 mi West 5.8 mph - N/A   Mostly Cloudy
8:53 PM 62.1 °F 53.1 °F 72% 29.97 in 10.0 mi Calm Calm - 0.00 in   Mostly Cloudy
9:53 PM 60.1 °F 55.0 °F 83% 29.97 in 10.0 mi Calm Calm - N/A   Partly Cloudy
10:53 PM 60.1 °F 55.0 °F 83% 29.97 in 10.0 mi SSW 5.8 mph - N/A   Mostly Cloudy
11:53 PM 64.0 °F 53.1 °F 67% 29.97 in 10.0 mi WSW 10.4 mph - N/A   Overcast